Weather History for K01M - March, 2014

Change the Weather History Date:

Sunday, March 2, 2014

  Actual Average (KTUP) Record (KTUP)
Temperature  
Mean Temperature 54 °F 50 °F  
Max Temperature 73 °F 61 °F 83 °F (2012)
Min Temperature 35 °F 39 °F 14 °F (1980)
Degree Days  
Heating Degree Days 10 15  
Month to date heating degree days 30  
Since 1 July heating degree days 2461  
Cooling Degree Days 0 0  
Month to date cooling degree days 0  
Year to date cooling degree days 2  
Growing Degree Days 4 (Base 50)    
Moisture  
Dew Point 50 °F    
Average Humidity 80    
Maximum Humidity 95    
Minimum Humidity 57    
Precipitation  
Precipitation 0.04 in 0.17 in 4.85 in (1997)
Month to date precipitation 0.35  
Year to date precipitation 9.79  
Snow  
Snow 0.00 in 0.00 in T in (2013)
Month to date snowfall 0.0  
Since 1 July snowfall 1.8  
Snow Depth -    
Sea Level Pressure  
Sea Level Pressure 30.03 in    
Wind  
Wind Speed 9 mph (SSW)    
Max Wind Speed 16 mph    
Max Gust Speed 23 mph    
Visibility 10 miles    
Events Rain , Thunderstorm    
T = Trace of Precipitation, MM = Missing Value Source: NWS Daily Summary

Daily Weather History Graph

Daily Weather History Graph

Search for Another Location

Airport or City:

Trip Planner

Search our weather history database for the weather conditions in past years. The results will help you decide how hot, cold, wet, or windy it might be!

Date:

Astronomy

Mar. 02, 2014 Rise Set
Actual Time 6:20 AM CST 5:49 PM CST
Civil Twilight 5:55 AM CST 6:14 PM CST
Nautical Twilight 5:26 AM CST 6:44 PM CST
Astronomical Twilight 4:57 AM CST 7:13 PM CST
Moon 6:56 AM CST (3/2) 7:39 PM CST (3/2)
Length of Visible Light 12h 19m
Length of Day
11h 29m
Waxing Crescent, 3% of the Moon is Illuminated
Mar 2
Waxing Crescent
Mar 8
First Quarter
Mar 16
Full
Mar 23
Last Quarter
Mar 30
New

Hourly Weather History & Observations

Time (CST) Temp. Windchill Dew Point Humidity Pressure Visibility Wind Dir Wind Speed Gust Speed Precip Events Conditions
12:15 AM 60.8 °F - 51.8 °F 72% 30.08 in 10.0 mi SSE 9.2 mph - N/A   Overcast
12:35 AM 60.8 °F - 51.8 °F 72% 30.08 in 10.0 mi South 9.2 mph 17.3 mph N/A   Overcast
12:55 AM 60.4 °F - 51.8 °F 73% 30.08 in 10.0 mi South 9.2 mph 17.3 mph N/A   Overcast
1:15 AM 60.1 °F - 52.2 °F 75% 30.08 in 10.0 mi South 10.4 mph - N/A   Overcast
1:35 AM 60.1 °F - 52.7 °F 77% 30.08 in 10.0 mi South 10.4 mph - N/A   Mostly Cloudy
1:55 AM 59.5 °F - 52.9 °F 79% 30.07 in 10.0 mi South 8.1 mph - N/A   Scattered Clouds
2:15 AM 59.9 °F - 53.6 °F 80% 30.07 in 10.0 mi South 9.2 mph - N/A   Clear
2:35 AM 59.9 °F - 53.8 °F 80% 30.07 in 10.0 mi South 6.9 mph - N/A   Scattered Clouds
2:55 AM 59.9 °F - 54.0 °F 81% 30.08 in 10.0 mi South 5.8 mph - N/A   Overcast
3:15 AM 58.6 °F - 53.6 °F 83% 30.07 in 10.0 mi SSE 5.8 mph - N/A   Mostly Cloudy
3:35 AM 58.1 °F - 53.6 °F 85% 30.07 in 10.0 mi South 5.8 mph - N/A   Scattered Clouds
3:55 AM 58.1 °F - 53.8 °F 86% 30.08 in 10.0 mi South 5.8 mph - N/A   Scattered Clouds
4:15 AM 57.7 °F - 54.0 °F 87% 30.08 in 10.0 mi South 4.6 mph - N/A   Mostly Cloudy
4:35 AM 58.5 °F - 54.5 °F 87% 30.09 in 10.0 mi South 5.8 mph - N/A   Overcast
4:55 AM 58.3 °F - 54.7 °F 88% 30.10 in 10.0 mi South 5.8 mph - N/A   Overcast
5:15 AM 58.1 °F - 54.7 °F 88% 30.10 in 10.0 mi South 5.8 mph - N/A   Overcast
5:35 AM 58.1 °F - 54.9 °F 89% 30.09 in 10.0 mi South 4.6 mph - N/A   Overcast
5:55 AM 58.3 °F - 55.0 °F 89% 30.10 in 10.0 mi SSW 6.9 mph - N/A   Overcast
6:15 AM 58.5 °F - 55.4 °F 90% 30.11 in 10.0 mi SSW 5.8 mph - N/A   Overcast
6:35 AM 58.8 °F - 55.8 °F 90% 30.11 in 10.0 mi South 11.5 mph - N/A   Overcast
6:55 AM 59.0 °F - 56.3 °F 91% 30.12 in 10.0 mi SSW 8.1 mph - N/A   Overcast
7:15 AM 58.6 °F - 56.1 °F 91% 30.13 in 10.0 mi SSW 9.2 mph - N/A   Overcast
7:35 AM 58.6 °F - 56.3 °F 92% 30.13 in 10.0 mi South 11.5 mph 16.1 mph N/A   Overcast
7:55 AM 58.3 °F - 56.3 °F 93% 30.12 in 7.0 mi South 12.7 mph 19.6 mph N/A   Overcast
8:15 AM 58.1 °F - 56.3 °F 94% 30.12 in 5.0 mi SSW 12.7 mph 17.3 mph N/A   Overcast
8:35 AM 58.1 °F - 56.3 °F 94% 30.13 in 4.0 mi South 9.2 mph 18.4 mph N/A   Overcast
8:55 AM 59.0 °F - 56.5 °F 91% 30.13 in 7.0 mi South 8.1 mph - N/A   Overcast
9:15 AM 60.1 °F - 56.8 °F 89% 30.13 in 7.0 mi SSW 10.4 mph - N/A   Overcast
9:35 AM 61.2 °F - 57.0 °F 86% 30.12 in 7.0 mi SSW 11.5 mph - N/A   Overcast
9:55 AM 63.0 °F - 57.2 °F 81% 30.11 in 10.0 mi SSW 13.8 mph 19.6 mph N/A   Overcast
10:15 AM 63.7 °F - 57.2 °F 79% 30.11 in 10.0 mi South 10.4 mph - N/A   Overcast
10:35 AM 64.6 °F - 57.2 °F 77% 30.11 in 10.0 mi South 12.7 mph 16.1 mph N/A   Overcast
10:55 AM 66.0 °F - 57.4 °F 74% 30.10 in 10.0 mi South 9.2 mph 17.3 mph N/A   Mostly Cloudy
11:15 AM 68.0 °F - 57.4 °F 69% 30.08 in 10.0 mi SSW 10.4 mph 21.9 mph N/A   Mostly Cloudy
11:35 AM 68.7 °F - 57.2 °F 67% 30.07 in 10.0 mi SSW 10.4 mph 23.0 mph N/A   Mostly Cloudy
11:55 AM 69.1 °F - 57.4 °F 66% 30.06 in 10.0 mi SSW 11.5 mph 18.4 mph N/A   Overcast
12:15 PM 69.4 °F - 57.4 °F 65% 30.05 in 10.0 mi South 12.7 mph 18.4 mph N/A   Overcast
12:35 PM 71.8 °F - 57.6 °F 61% 30.03 in 10.0 mi SSW 16.1 mph 20.7 mph N/A   Scattered Clouds
12:55 PM 70.7 °F - 57.2 °F 62% 30.01 in 10.0 mi South 6.9 mph 17.3 mph N/A   Mostly Cloudy
1:15 PM 73.2 °F - 57.9 °F 59% 30.00 in 10.0 mi SW 10.4 mph - N/A   Overcast
1:35 PM 72.7 °F - 57.6 °F 59% 29.99 in 10.0 mi SSW 9.2 mph 17.3 mph N/A   Mostly Cloudy
1:55 PM 72.5 °F - 57.4 °F 59% 29.98 in 10.0 mi SSW 6.9 mph 17.3 mph N/A   Overcast
2:15 PM 73.6 °F - 57.4 °F 57% 29.96 in 10.0 mi SW 5.8 mph - N/A   Mostly Cloudy
2:35 PM 73.2 °F - 57.2 °F 57% 29.96 in 10.0 mi SSW 10.4 mph 19.6 mph N/A   Mostly Cloudy
2:55 PM 72.5 °F - 56.7 °F 57% 29.96 in 10.0 mi SSW 11.5 mph 18.4 mph N/A   Mostly Cloudy
3:15 PM 72.5 °F - 56.7 °F 57% 29.95 in 10.0 mi SSW 10.4 mph - N/A   Mostly Cloudy
3:35 PM 71.8 °F - 56.3 °F 58% 29.94 in 10.0 mi SSW 8.1 mph 16.1 mph N/A   Overcast
3:55 PM 61.7 °F - 50.2 °F 66% 29.95 in 10.0 mi North 6.9 mph - N/A   Overcast
4:15 PM 58.5 °F - 47.5 °F 67% 29.94 in 10.0 mi North 10.4 mph - N/A   Mostly Cloudy
4:35 PM 54.5 °F - 44.2 °F 68% 29.95 in 10.0 mi North 8.1 mph - N/A   Scattered Clouds
4:55 PM 51.4 °F - 43.2 °F 73% 29.96 in 10.0 mi North 10.4 mph - N/A   Scattered Clouds
5:15 PM 47.5 °F - 41.4 °F 79% 29.95 in 10.0 mi NNE 6.9 mph - N/A   Scattered Clouds
5:35 PM 45.7 °F 42.0 °F 40.1 °F 81% 29.95 in 10.0 mi NNE 6.9 mph - N/A   Scattered Clouds
5:55 PM 44.8 °F 41.0 °F 39.7 °F 82% 29.93 in 10.0 mi North 6.9 mph - N/A Thunderstorm Mostly Cloudy
6:15 PM 44.4 °F 40.0 °F 39.4 °F 82% 29.93 in 10.0 mi North 8.1 mph - N/A   Overcast
6:35 PM 43.9 °F 40.5 °F 39.2 °F 84% 29.95 in 10.0 mi North 5.8 mph - N/A   Overcast
6:55 PM 43.7 °F 39.1 °F 39.2 °F 84% 29.94 in 10.0 mi North 8.1 mph - N/A   Mostly Cloudy
7:15 PM 43.7 °F 39.1 °F 39.2 °F 84% 29.96 in 10.0 mi NNW 8.1 mph - N/A   Overcast
7:35 PM 43.2 °F 37.4 °F 38.7 °F 84% 29.95 in 10.0 mi North 10.4 mph - N/A   Overcast
7:55 PM 42.4 °F 36.5 °F 38.3 °F 85% 29.95 in 10.0 mi North 10.4 mph - N/A   Overcast
8:15 PM 42.1 °F 37.7 °F 37.8 °F 85% 29.96 in 10.0 mi North 6.9 mph - N/A   Overcast
8:35 PM 41.4 °F 36.8 °F 37.8 °F 87% 29.94 in 10.0 mi NNE 6.9 mph 16.1 mph N/A   Overcast
8:55 PM 41.0 °F 34.7 °F 38.3 °F 90% 29.91 in 10.0 mi NNE 10.4 mph - N/A Thunderstorm Overcast
9:15 PM 41.0 °F 35.8 °F 38.3 °F 90% 29.91 in 10.0 mi NE 8.1 mph 17.3 mph N/A   Overcast
9:35 PM 41.4 °F 36.8 °F 38.7 °F 90% 29.95 in 10.0 mi North 6.9 mph 18.4 mph N/A Rain Rain
9:55 PM 39.7 °F 33.7 °F 38.3 °F 95% 29.94 in 10.0 mi NNE 9.2 mph - 0.02 in Rain Light Rain
10:15 PM 39.2 °F 32.5 °F 37.6 °F 94% 29.96 in 10.0 mi NNW 10.4 mph - N/A Rain , Thunderstorm Light Thunderstorms and Rain
10:35 PM 38.3 °F 30.9 °F 36.7 °F 94% 29.97 in 10.0 mi North 11.5 mph 18.4 mph 0.01 in Rain Rain
10:55 PM 37.4 °F 31.4 °F 35.8 °F 94% 29.95 in 7.0 mi North 8.1 mph 16.1 mph 0.02 in Rain Light Rain
11:15 PM 37.2 °F 30.0 °F 35.8 °F 95% 29.93 in 10.0 mi North 10.4 mph - N/A   Overcast
11:35 PM 36.7 °F 29.9 °F 34.9 °F 93% 29.92 in 10.0 mi North 9.2 mph 16.1 mph N/A   Overcast
11:55 PM 35.8 °F 27.3 °F 33.8 °F 92% 29.91 in 10.0 mi NNE 12.7 mph 19.6 mph N/A   Overcast